Location: Anaheim Mobile Home Estates
(33.8153°N, 117.9967°W)
Time: 10:16:27
(UTC+00:00)

ACS3 Solar Sail - Visible Passes

Search period start: 12 October 2024 00:00
Search period end: 22 October 2024 00:00
Orbit: 960 x 1033 km, 97.5° (Epoch: 12 October)

Date Brightness Start Highest point End Pass type
(mag) Time Alt. Az. Time Alt. Az. Time Alt. Az.
12 Oct 3.0 02:44:41 23° ENE 02:44:41 23° ENE 02:49:14 10° NNE visible
12 Oct 3.0 04:29:48 38° NW 04:29:48 38° NW 04:34:01 10° NNW visible
13 Oct 2.4 03:16:16 39° NE 03:16:16 39° NE 03:21:08 10° N visible
13 Oct 3.9 05:01:24 22° WNW 05:01:24 22° WNW 05:04:21 10° NW visible
14 Oct 2.3 03:47:51 52° N 03:47:51 52° N 03:52:32 10° N visible
14 Oct 4.6 05:32:58 11° WNW 05:32:58 11° WNW 05:33:22 10° WNW visible
15 Oct 3.1 02:34:19 20° ENE 02:34:19 20° ENE 02:38:18 10° NNE visible
15 Oct 2.9 04:19:25 40° NW 04:19:25 40° NW 04:23:30 10° NNW visible
16 Oct 2.6 03:05:52 33° NE 03:05:52 33° NE 03:10:21 10° N visible
16 Oct 3.8 04:50:59 23° WNW 04:50:59 23° WNW 04:53:59 10° NW visible
17 Oct 2.4 03:37:26 46° NNE 03:37:26 46° NNE 03:41:49 10° N visible
17 Oct 4.5 05:22:32 12° WNW 05:22:32 12° WNW 05:23:28 10° NW visible
18 Oct 3.3 02:23:51 17° ENE 02:23:51 17° ENE 02:27:10 10° NNE visible
18 Oct 2.9 04:08:58 40° NNW 04:08:58 40° NNW 04:12:52 10° NNW visible
19 Oct 2.8 02:55:23 28° NE 02:55:23 28° NE 02:59:25 10° N visible
19 Oct 3.7 04:40:29 25° NW 04:40:29 25° NW 04:43:27 10° NNW visible
20 Oct 2.5 03:26:54 40° NNE 03:26:54 40° NNE 03:31:00 10° N visible
20 Oct 4.4 05:12:01 14° WNW 05:12:01 14° WNW 05:13:16 10° NW visible
21 Oct 3.4 02:13:18 14° ENE 02:13:18 14° ENE 02:15:46 10° NE visible
21 Oct 2.9 03:58:25 38° NNW 03:58:25 38° NNW 04:02:07 10° NNW visible
